Time,TemperatureF,DewpointF,PressureIn,WindDirection,WindDirectionDegrees,WindSpeedMPH,WindSpeedGustMPH,Humidity,HourlyPrecipIn,Conditions,Clouds,dailyrainin,SolarRadiationWatts/m^2,SoftwareType,DateUTC
2013-08-04 00:06:00,57.5,57.5,29.83,WNW,285,8.3,-999.0,100,0.00,,,0.00,0.00,,2013-08-04 07:06:00,
2013-08-04 00:11:00,57.4,57.4,29.83,SSW,201,4.7,-999.0,100,0.00,,,0.00,0.98,,2013-08-04 07:11:00,
2013-08-04 00:16:00,57.4,57.4,29.83,South,191,3.7,-999.0,100,0.00,,,0.00,0.00,,2013-08-04 07:16:00,
2013-08-04 00:26:00,57.4,57.4,29.83,West,267,6.4,-999.0,100,0.00,,,0.00,0.24,,2013-08-04 07:26:00,
2013-08-04 00:32:00,57.4,57.4,29.83,WNW,302,3.7,-999.0,100,0.00,,,0.00,0.00,,2013-08-04 07:32:00,
2013-08-04 00:41:00,57.1,57.1,29.83,WSW,249,6.4,-999.0,100,0.00,,,0.00,0.43,,2013-08-04 07:41:00,
2013-08-04 00:46:00,57.2,57.2,29.83,South,179,3.4,-999.0,100,0.00,,,0.00,0.67,,2013-08-04 07:46:00,
2013-08-04 00:51:00,57.4,57.4,29.83,SW,221,2.3,-999.0,100,0.00,,,0.00,0.00,,2013-08-04 07:51:00,
2013-08-04 00:56:00,57.5,57.5,29.83,SW,222,5.2,-999.0,100,0.00,,,0.00,0.06,,2013-08-04 07:56:00,
2013-08-04 01:01:00,57.6,57.6,29.83,SW,221,3.5,-999.0,100,0.00,,,0.00,0.00,,2013-08-04 08:01:00,
2013-08-04 01:12:00,57.8,57.8,29.83,SSW,203,2.5,-999.0,100,0.00,,,0.00,0.43,,2013-08-04 08:12:00,
2013-08-04 01:21:00,58.1,58.1,29.83,SW,235,3.9,-999.0,100,0.00,,,0.00,0.37,,2013-08-04 08:21:00,
2013-08-04 01:26:00,58.1,58.1,29.83,SW,224,3.9,-999.0,100,0.00,,,0.00,0.00,,2013-08-04 08:26:00,
2013-08-04 01:31:00,58.1,58.1,29.83,East,92,4.9,-999.0,100,0.00,,,0.00,0.31,,2013-08-04 08:31:00,
2013-08-04 01:36:00,58.1,58.1,29.83,SSE,155,4.2,-999.0,100,0.00,,,0.00,0.24,,2013-08-04 08:36:00,
2013-08-04 01:46:00,57.9,57.9,29.83,SSW,209,4.4,-999.0,100,0.00,,,0.00,0.73,,2013-08-04 08:46:00,
2013-08-04 01:56:00,58.0,58.0,29.82,WSW,239,0.0,-999.0,100,0.00,,,0.00,0.49,,2013-08-04 08:56:00,
2013-08-04 02:01:00,57.9,57.9,29.83,SW,232,3.9,-999.0,100,0.00,,,0.00,0.92,,2013-08-04 09:01:00,
2013-08-04 02:06:00,57.9,57.9,29.83,SSE,162,5.6,-999.0,100,0.00,,,0.00,0.00,,2013-08-04 09:06:00,
2013-08-04 02:11:00,57.8,57.8,29.83,SSE,148,4.4,-999.0,100,0.00,,,0.00,0.00,,2013-08-04 09:11:00,
2013-08-04 02:16:00,57.8,57.8,29.83,SSW,196,3.4,-999.0,100,0.00,,,0.00,0.49,,2013-08-04 09:16:00,
2013-08-04 02:26:00,57.8,57.8,29.83,SSW,207,2.0,-999.0,100,0.00,,,0.00,0.00,,2013-08-04 09:26:00,
2013-08-04 02:36:00,57.9,57.9,29.82,SSW,195,2.8,-999.0,100,0.00,,,0.00,0.73,,2013-08-04 09:36:00,
2013-08-04 02:41:00,57.8,57.8,29.83,SE,129,2.3,-999.0,100,0.00,,,0.00,0.00,,2013-08-04 09:41:00,
2013-08-04 02:46:00,58.1,58.1,29.83,WNW,282,1.1,-999.0,100,0.00,,,0.00,0.00,,2013-08-04 09:46:00,
2013-08-04 02:51:00,57.9,57.9,29.82,WSW,256,1.6,-999.0,100,0.00,,,0.00,0.00,,2013-08-04 09:51:00,
2013-08-04 02:56:00,57.9,57.9,29.83,SSE,165,2.3,-999.0,100,0.00,,,0.00,0.00,,2013-08-04 09:56:00,
2013-08-04 03:06:00,57.9,57.9,29.83,South,191,5.8,-999.0,100,0.00,,,0.00,0.00,,2013-08-04 10:06:00,
2013-08-04 03:11:00,58.2,58.2,29.82,South,188,3.5,-999.0,100,0.00,,,0.00,0.00,,2013-08-04 10:11:00,
2013-08-04 03:21:00,57.8,57.8,29.83,SSW,212,2.7,-999.0,100,0.00,,,0.00,0.73,,2013-08-04 10:21:00,
2013-08-04 03:26:00,57.9,57.9,29.82,SSE,156,1.3,-999.0,100,0.00,,,0.00,0.73,,2013-08-04 10:26:00,
2013-08-04 03:31:00,58.0,58.0,29.83,WSW,243,4.7,-999.0,100,0.00,,,0.00,0.00,,2013-08-04 10:31:00,
2013-08-04 03:41:00,58.0,58.0,29.83,SSW,198,2.0,-999.0,100,0.00,,,0.00,0.49,,2013-08-04 10:41:00,
2013-08-04 03:51:00,57.9,57.9,29.82,WSW,249,8.3,-999.0,100,0.00,,,0.00,0.00,,2013-08-04 10:51:00,
2013-08-04 03:56:00,58.0,58.0,29.83,SW,215,8.0,-999.0,100,0.00,,,0.00,0.73,,2013-08-04 10:56:00,
2013-08-04 04:06:00,58.2,58.2,29.82,South,187,3.4,-999.0,100,0.00,,,0.00,0.73,,2013-08-04 11:06:00,
2013-08-04 04:11:00,58.2,58.2,29.83,SSW,207,7.6,-999.0,100,0.00,,,0.00,0.00,,2013-08-04 11:11:00,
2013-08-04 04:16:00,58.2,58.2,29.83,SSW,195,3.5,-999.0,100,0.00,,,0.00,0.00,,2013-08-04 11:16:00,
2013-08-04 04:21:00,57.9,57.9,29.83,SW,219,5.4,-999.0,100,0.00,,,0.00,0.00,,2013-08-04 11:21:00,
2013-08-04 04:26:00,58.1,58.1,29.82,South,191,0.0,-999.0,100,0.00,,,0.00,0.98,,2013-08-04 11:26:00,
2013-08-04 04:36:00,58.2,58.2,29.84,SSW,206,3.5,-999.0,100,0.00,,,0.00,0.98,,2013-08-04 11:36:00,
2013-08-04 04:41:00,58.1,58.1,29.83,SW,216,3.9,-999.0,100,0.00,,,0.00,0.00,,2013-08-04 11:41:00,
2013-08-04 04:46:00,58.0,58.0,29.83,SW,216,6.1,-999.0,100,0.00,,,0.00,0.00,,2013-08-04 11:46:00,
2013-08-04 04:51:00,58.2,58.2,29.83,South,181,4.5,-999.0,100,0.00,,,0.00,0.00,,2013-08-04 11:51:00,
2013-08-04 05:01:00,58.2,58.2,29.83,South,181,3.0,-999.0,100,0.00,,,0.00,0.06,,2013-08-04 12:01:00,
2013-08-04 05:11:00,58.1,58.1,29.83,WSW,247,3.7,-999.0,100,0.00,,,0.00,0.24,,2013-08-04 12:11:00,
2013-08-04 05:21:00,58.3,58.3,29.83,SSW,194,0.0,-999.0,100,0.00,,,0.00,0.12,,2013-08-04 12:21:00,
2013-08-04 05:26:00,58.2,58.2,29.84,South,173,2.2,-999.0,100,0.00,,,0.00,0.00,,2013-08-04 12:26:00,
2013-08-04 05:31:00,58.3,58.3,29.84,SSW,196,2.8,-999.0,100,0.00,,,0.00,0.31,,2013-08-04 12:31:00,
2013-08-04 05:41:00,58.4,58.4,29.83,SSE,167,5.4,-999.0,100,0.00,,,0.00,0.00,,2013-08-04 12:41:00,
2013-08-04 05:46:00,58.5,58.5,29.83,WSW,248,2.2,-999.0,100,0.00,,,0.00,0.12,,2013-08-04 12:46:00,
2013-08-04 05:56:00,58.3,58.3,29.83,SSW,196,6.4,-999.0,100,0.00,,,0.00,0.00,,2013-08-04 12:56:00,
2013-08-04 06:06:00,58.2,58.2,29.84,West,259,5.1,-999.0,100,0.00,,,0.00,0.67,,2013-08-04 13:06:00,
2013-08-04 06:16:00,58.3,58.3,29.84,South,188,0.0,-999.0,100,0.00,,,0.00,0.00,,2013-08-04 13:16:00,
2013-08-04 06:26:00,58.0,58.0,29.85,SSE,157,5.2,-999.0,100,0.00,,,0.00,2.32,,2013-08-04 13:26:00,
2013-08-04 06:36:00,58.2,58.1,29.85,SSW,196,2.2,-999.0,100,0.00,,,0.00,3.85,,2013-08-04 13:36:00,
2013-08-04 06:41:00,58.3,58.1,29.85,SSE,167,3.2,-999.0,100,0.00,,,0.00,4.46,,2013-08-04 13:41:00,
2013-08-04 06:51:00,58.0,57.8,29.84,SW,215,6.6,-999.0,99,0.00,,,0.00,10.74,,2013-08-04 13:51:00,
2013-08-04 07:01:00,58.2,57.8,29.86,SSW,209,4.7,-999.0,98,0.00,,,0.00,12.45,,2013-08-04 14:01:00,
2013-08-04 07:06:00,58.3,57.9,29.84,SSW,202,5.8,-999.0,98,0.00,,,0.00,13.98,,2013-08-04 14:06:00,
2013-08-04 07:16:00,58.2,57.6,29.85,SSW,199,8.7,-999.0,98,0.00,,,0.00,25.15,,2013-08-04 14:16:00,
2013-08-04 07:26:00,58.6,58.0,29.84,SW,218,3.0,-999.0,98,0.00,,,0.00,23.26,,2013-08-04 14:26:00,
2013-08-04 07:31:00,58.6,58.0,29.85,SSW,198,4.5,-999.0,98,0.00,,,0.00,28.51,,2013-08-04 14:31:00,
2013-08-04 07:36:00,58.8,58.1,29.85,NW,315,1.1,-999.0,98,0.00,,,0.00,29.79,,2013-08-04 14:36:00,
2013-08-04 07:41:00,58.8,58.2,29.84,SE,142,1.8,-999.0,98,0.00,,,0.00,34.37,,2013-08-04 14:41:00,
2013-08-04 07:46:00,58.8,58.1,29.86,South,191,2.5,-999.0,97,0.00,,,0.00,34.43,,2013-08-04 14:46:00,
2013-08-04 07:56:00,58.9,58.2,29.86,South,178,2.3,-999.0,97,0.00,,,0.00,37.55,,2013-08-04 14:56:00,
2013-08-04 08:06:00,58.8,58.0,29.85,SSW,206,4.5,-999.0,97,0.00,,,0.00,48.78,,2013-08-04 15:06:00,
2013-08-04 08:11:00,59.0,58.1,29.86,SW,232,2.8,-999.0,97,0.00,,,0.00,54.03,,2013-08-04 15:11:00,
2013-08-04 08:16:00,59.0,58.0,29.86,South,179,2.7,-999.0,97,0.00,,,0.00,52.99,,2013-08-04 15:16:00,
2013-08-04 08:21:00,58.8,57.4,29.85,WSW,249,4.2,-999.0,95,0.00,,,0.00,73.14,,2013-08-04 15:21:00,
2013-08-04 08:26:00,59.0,57.5,29.86,SE,132,2.8,-999.0,95,0.00,,,0.00,90.84,,2013-08-04 15:26:00,
2013-08-04 08:31:00,59.1,57.5,29.86,South,178,4.7,-999.0,95,0.00,,,0.00,75.64,,2013-08-04 15:31:00,
2013-08-04 08:36:00,59.1,57.4,29.85,SSW,204,4.7,-999.0,94,0.00,,,0.00,86.51,,2013-08-04 15:36:00,
2013-08-04 08:46:00,59.3,57.5,29.86,NW,307,0.0,-999.0,93,0.00,,,0.00,71.55,,2013-08-04 15:46:00,
2013-08-04 08:51:00,59.1,56.9,29.86,SW,236,8.3,-999.0,92,0.00,,,0.00,79.67,,2013-08-04 15:51:00,
2013-08-04 08:56:00,59.5,57.5,29.86,South,190,1.6,-999.0,93,0.00,,,0.00,80.16,,2013-08-04 15:56:00,
2013-08-04 09:01:00,59.4,57.4,29.85,South,172,3.2,-999.0,93,0.00,,,0.00,87.67,,2013-08-04 16:01:00,
2013-08-04 09:11:00,59.2,56.9,29.86,SE,133,5.9,-999.0,92,0.00,,,0.00,109.16,,2013-08-04 16:11:00,
2013-08-04 09:21:00,59.4,57.3,29.86,South,171,6.9,-999.0,93,0.00,,,0.00,103.60,,2013-08-04 16:21:00,
2013-08-04 09:26:00,59.6,57.7,29.86,West,281,1.3,-999.0,94,0.00,,,0.00,110.20,,2013-08-04 16:26:00,
2013-08-04 09:31:00,59.6,57.5,29.86,SSW,195,4.4,-999.0,93,0.00,,,0.00,119.96,,2013-08-04 16:31:00,
2013-08-04 09:41:00,59.8,57.6,29.86,SSW,199,2.7,-999.0,92,0.00,,,0.00,130.95,,2013-08-04 16:41:00,
2013-08-04 09:46:00,60.1,57.7,29.87,SSW,208,4.2,-999.0,92,0.00,,,0.00,121.98,,2013-08-04 16:46:00,
2013-08-04 09:56:00,59.6,57.2,29.86,WSW,238,2.5,-999.0,92,0.00,,,0.00,144.32,,2013-08-04 16:56:00,
2013-08-04 10:01:00,59.5,57.1,29.86,SW,217,7.1,-999.0,92,0.00,,,0.00,148.96,,2013-08-04 17:01:00,
2013-08-04 10:06:00,59.5,57.0,29.86,SE,144,4.9,-999.0,92,0.00,,,0.00,180.65,,2013-08-04 17:06:00,
2013-08-04 10:16:00,60.1,57.6,29.86,South,191,2.8,-999.0,91,0.00,,,0.00,161.66,,2013-08-04 17:16:00,
2013-08-04 10:21:00,59.4,56.5,29.87,SSW,213,7.4,-999.0,90,0.00,,,0.00,163.43,,2013-08-04 17:21:00,
2013-08-04 10:31:00,60.0,56.8,29.86,SE,131,1.1,-999.0,89,0.00,,,0.00,192.43,,2013-08-04 17:31:00,
2013-08-04 10:41:00,60.5,57.3,29.87,South,182,1.5,-999.0,89,0.00,,,0.00,203.97,,2013-08-04 17:41:00,
2013-08-04 10:51:00,59.9,56.1,29.87,SW,226,4.0,-999.0,87,0.00,,,0.00,232.97,,2013-08-04 17:51:00,
2013-08-04 10:56:00,60.8,57.2,29.87,SSW,197,1.6,-999.0,88,0.00,,,0.00,238.16,,2013-08-04 17:56:00,
2013-08-04 11:06:00,60.7,55.8,29.87,SW,222,4.4,-999.0,84,0.00,,,0.00,308.24,,2013-08-04 18:06:00,
2013-08-04 11:16:00,60.4,54.0,29.88,SSW,213,7.1,-999.0,80,0.00,,,0.00,337.73,,2013-08-04 18:16:00,
2013-08-04 11:21:00,61.0,54.8,29.87,South,176,2.3,-999.0,80,0.00,,,0.00,389.68,,2013-08-04 18:21:00,
2013-08-04 11:26:00,60.5,53.0,29.87,West,261,6.4,-999.0,76,0.00,,,0.00,311.84,,2013-08-04 18:26:00,
2013-08-04 11:36:00,60.4,53.1,29.87,SW,224,7.3,-999.0,77,0.00,,,0.00,313.31,,2013-08-04 18:36:00,
2013-08-04 11:41:00,60.8,53.8,29.87,SSW,198,5.6,-999.0,78,0.00,,,0.00,323.14,,2013-08-04 18:41:00,
2013-08-04 11:46:00,60.5,53.6,29.86,SSW,204,7.1,-999.0,78,0.00,,,0.00,329.85,,2013-08-04 18:46:00,
2013-08-04 11:51:00,62.3,54.6,29.86,SW,214,5.1,-999.0,76,0.00,,,0.00,337.79,,2013-08-04 18:51:00,
2013-08-04 12:01:00,61.5,52.7,29.87,SW,228,4.5,-999.0,73,0.00,,,0.00,361.90,,2013-08-04 19:01:00,
2013-08-04 12:06:00,61.2,52.4,29.86,SSW,209,5.6,-999.0,73,0.00,,,0.00,382.97,,2013-08-04 19:06:00,
2013-08-04 12:11:00,61.5,51.4,29.86,SSW,195,7.3,-999.0,70,0.00,,,0.00,348.96,,2013-08-04 19:11:00,
2013-08-04 12:21:00,61.5,53.2,29.86,SSW,206,4.5,-999.0,74,0.00,,,0.00,372.83,,2013-08-04 19:21:00,
2013-08-04 12:26:00,61.3,52.7,29.87,South,190,4.9,-999.0,73,0.00,,,0.00,402.50,,2013-08-04 19:26:00,
2013-08-04 12:31:00,61.7,52.6,29.87,SW,219,10.4,-999.0,72,0.00,,,0.00,439.07,,2013-08-04 19:31:00,
2013-08-04 12:41:00,61.2,51.8,29.86,SSW,197,11.2,-999.0,71,0.00,,,0.00,385.17,,2013-08-04 19:41:00,
2013-08-04 12:46:00,61.6,53.0,29.87,SW,235,11.6,-999.0,73,0.00,,,0.00,419.11,,2013-08-04 19:46:00,
2013-08-04 12:51:00,61.1,52.5,29.86,WSW,239,10.4,-999.0,73,0.00,,,0.00,493.22,,2013-08-04 19:51:00,
2013-08-04 13:01:00,63.6,54.2,29.86,SSW,211,5.2,-999.0,72,0.00,,,0.00,461.54,,2013-08-04 20:01:00,
2013-08-04 13:11:00,62.3,51.8,29.86,SW,229,5.9,-999.0,68,0.00,,,0.00,534.55,,2013-08-04 20:11:00,
2013-08-04 13:21:00,61.8,52.4,29.86,SSE,156,9.2,-999.0,71,0.00,,,0.00,484.01,,2013-08-04 20:21:00,
2013-08-04 13:31:00,63.6,54.4,29.85,South,183,3.0,-999.0,72,0.00,,,0.00,446.70,,2013-08-04 20:31:00,
2013-08-04 13:41:00,63.1,52.8,29.85,NNW,332,4.2,-999.0,69,0.00,,,0.00,562.64,,2013-08-04 20:41:00,
2013-08-04 13:46:00,63.5,53.1,29.86,South,177,8.7,-999.0,69,0.00,,,0.00,564.29,,2013-08-04 20:46:00,
2013-08-04 13:56:00,64.3,53.4,29.86,West,268,3.5,-999.0,68,0.00,,,0.00,628.08,,2013-08-04 20:56:00,
2013-08-04 14:01:00,62.6,50.9,29.85,SSE,167,9.7,-999.0,65,0.00,,,0.00,592.92,,2013-08-04 21:01:00,
2013-08-04 14:06:00,62.7,51.3,29.85,SW,235,8.8,-999.0,66,0.00,,,0.00,570.02,,2013-08-04 21:06:00,
2013-08-04 14:11:00,62.3,51.9,29.85,SSE,158,10.2,-999.0,69,0.00,,,0.00,748.23,,2013-08-04 21:11:00,
2013-08-04 14:16:00,62.0,50.8,29.84,SSW,193,9.8,-999.0,67,0.00,,,0.00,643.28,,2013-08-04 21:16:00,
2013-08-04 14:21:00,63.2,52.6,29.84,SW,235,7.3,-999.0,68,0.00,,,0.00,1008.85,,2013-08-04 21:21:00,
2013-08-04 14:31:00,62.5,50.8,29.84,SSW,199,7.8,-999.0,66,0.00,,,0.00,978.27,,2013-08-04 21:31:00,
2013-08-04 14:36:00,64.1,53.1,29.84,NW,307,6.4,-999.0,67,0.00,,,0.00,778.76,,2013-08-04 21:36:00,
2013-08-04 14:46:00,64.1,52.5,29.83,East,95,6.9,-999.0,66,0.00,,,0.00,774.66,,2013-08-04 21:46:00,
2013-08-04 14:51:00,65.2,52.8,29.84,SW,227,4.2,-999.0,64,0.00,,,0.00,809.52,,2013-08-04 21:51:00,
2013-08-04 14:56:00,62.6,50.7,29.83,SE,144,10.7,-999.0,65,0.00,,,0.00,692.80,,2013-08-04 21:56:00,
2013-08-04 15:01:00,62.4,50.9,29.83,SSW,212,9.3,-999.0,66,0.00,,,0.00,670.09,,2013-08-04 22:01:00,
2013-08-04 15:11:00,62.7,51.7,29.83,West,265,11.9,-999.0,67,0.00,,,0.00,545.06,,2013-08-04 22:11:00,
2013-08-04 15:16:00,61.7,51.0,29.83,SW,220,14.3,-999.0,68,0.00,,,0.00,520.82,,2013-08-04 22:16:00,
2013-08-04 15:22:00,62.0,51.0,29.84,SE,136,10.4,-999.0,67,0.00,,,0.00,537.85,,2013-08-04 22:22:00,
2013-08-04 15:31:00,61.4,51.7,29.83,SSW,210,11.7,-999.0,70,0.00,,,0.00,461.36,,2013-08-04 22:31:00,
2013-08-04 15:41:00,61.7,53.4,29.83,South,188,7.1,-999.0,74,0.00,,,0.00,469.66,,2013-08-04 22:41:00,
2013-08-04 15:46:00,62.0,52.5,29.82,SW,224,10.9,-999.0,71,0.00,,,0.00,427.78,,2013-08-04 22:46:00,
2013-08-04 15:51:00,61.2,52.5,29.82,SW,230,10.2,-999.0,73,0.00,,,0.00,470.64,,2013-08-04 22:51:00,
2013-08-04 16:01:00,61.6,53.9,29.81,West,262,6.8,-999.0,76,0.00,,,0.00,685.71,,2013-08-04 23:01:00,
2013-08-04 16:06:00,62.2,54.3,29.82,SW,224,5.2,-999.0,76,0.00,,,0.00,453.30,,2013-08-04 23:06:00,
2013-08-04 16:11:00,61.9,53.3,29.82,SSW,201,6.6,-999.0,73,0.00,,,0.00,634.68,,2013-08-04 23:11:00,
2013-08-04 16:21:00,62.0,53.0,29.81,SW,232,9.2,-999.0,72,0.00,,,0.00,343.59,,2013-08-04 23:21:00,
2013-08-04 16:31:00,60.8,52.7,29.81,SSW,200,11.2,-999.0,75,0.00,,,0.00,284.74,,2013-08-04 23:31:00,
2013-08-04 16:36:00,61.1,53.7,29.81,ESE,123,9.7,-999.0,77,0.00,,,0.00,290.35,,2013-08-04 23:36:00,
2013-08-04 16:46:00,60.3,53.2,29.82,WSW,239,14.0,-999.0,77,0.00,,,0.00,311.60,,2013-08-04 23:46:00,
2013-08-04 16:51:00,59.4,53.3,29.81,WSW,257,13.4,-999.0,80,0.00,,,0.00,201.65,,2013-08-04 23:51:00,
2013-08-04 16:56:00,59.0,53.4,29.82,WSW,248,12.9,-999.0,82,0.00,,,0.00,205.86,,2013-08-04 23:56:00,
2013-08-04 17:01:00,59.1,54.1,29.82,SW,220,14.1,-999.0,84,0.00,,,0.00,222.53,,2013-08-05 00:01:00,
2013-08-04 17:11:00,59.1,53.8,29.82,WSW,244,17.9,-999.0,83,0.00,,,0.00,231.14,,2013-08-05 00:11:00,
2013-08-04 17:16:00,59.3,54.5,29.82,SW,224,11.9,-999.0,84,0.00,,,0.00,212.03,,2013-08-05 00:16:00,
2013-08-04 17:21:00,59.6,54.3,29.83,SW,217,13.1,-999.0,83,0.00,,,0.00,223.81,,2013-08-05 00:21:00,
2013-08-04 17:27:00,59.9,54.6,29.82,WSW,245,14.5,-999.0,82,0.00,,,0.00,207.08,,2013-08-05 00:27:00,
2013-08-04 17:36:00,60.0,54.8,29.81,SW,231,8.1,-999.0,83,0.00,,,0.00,184.68,,2013-08-05 00:36:00,
2013-08-04 17:41:00,59.5,54.4,29.82,West,260,16.5,-999.0,83,0.00,,,0.00,179.06,,2013-08-05 00:41:00,
2013-08-04 17:46:00,59.7,55.3,29.83,SW,222,3.5,-999.0,85,0.00,,,0.00,156.29,,2013-08-05 00:46:00,
2013-08-04 17:51:00,59.7,55.4,29.82,SW,221,12.8,-999.0,86,0.00,,,0.00,168.62,,2013-08-05 00:51:00,
2013-08-04 17:56:00,59.7,54.7,29.82,SSW,213,8.7,-999.0,83,0.00,,,0.00,139.07,,2013-08-05 00:56:00,
2013-08-04 18:01:00,59.7,55.0,29.83,SW,223,9.5,-999.0,84,0.00,,,0.00,136.94,,2013-08-05 01:01:00,
2013-08-04 18:06:00,60.1,55.2,29.82,West,268,9.5,-999.0,84,0.00,,,0.00,126.43,,2013-08-05 01:06:00,
2013-08-04 18:11:00,59.5,54.8,29.82,WSW,246,7.3,-999.0,84,0.00,,,0.00,132.85,,2013-08-05 01:11:00,
2013-08-04 18:21:00,60.3,55.7,29.82,WSW,254,5.8,-999.0,85,0.00,,,0.00,118.38,,2013-08-05 01:21:00,
2013-08-04 18:26:00,60.7,55.9,29.82,WNW,293,3.2,-999.0,84,0.00,,,0.00,101.83,,2013-08-05 01:26:00,
2013-08-04 18:31:00,60.1,56.1,29.81,SW,218,4.7,-999.0,87,0.00,,,0.00,103.05,,2013-08-05 01:31:00,
2013-08-04 18:36:00,60.7,56.6,29.83,WSW,248,1.1,-999.0,86,0.00,,,0.00,84.25,,2013-08-05 01:36:00,
2013-08-04 18:46:00,60.8,56.5,29.82,SSW,197,3.4,-999.0,86,0.00,,,0.00,66.00,,2013-08-05 01:46:00,
2013-08-04 18:51:00,60.2,55.8,29.82,SSE,165,8.3,-999.0,85,0.00,,,0.00,66.48,,2013-08-05 01:51:00,
2013-08-04 18:56:00,60.0,56.1,29.82,West,268,5.4,-999.0,87,0.00,,,0.00,49.15,,2013-08-05 01:56:00,
2013-08-04 19:01:00,60.2,56.4,29.83,SW,226,8.1,-999.0,87,0.00,,,0.00,40.78,,2013-08-05 02:01:00,
2013-08-04 19:11:00,60.3,56.9,29.83,NW,312,3.9,-999.0,88,0.00,,,0.00,35.96,,2013-08-05 02:11:00,
2013-08-04 19:16:00,60.0,56.4,29.83,SW,220,7.1,-999.0,88,0.00,,,0.00,29.61,,2013-08-05 02:16:00,
2013-08-04 19:21:00,60.3,56.9,29.83,NW,314,3.7,-999.0,89,0.00,,,0.00,23.69,,2013-08-05 02:21:00,
2013-08-04 19:26:00,60.0,56.8,29.83,West,274,5.6,-999.0,89,0.00,,,0.00,19.29,,2013-08-05 02:26:00,
2013-08-04 19:31:00,60.1,56.9,29.84,West,276,3.5,-999.0,89,0.00,,,0.00,17.40,,2013-08-05 02:31:00,
2013-08-04 19:36:00,59.9,57.0,29.83,WNW,293,2.3,-999.0,90,0.00,,,0.00,13.00,,2013-08-05 02:36:00,
2013-08-04 19:41:00,60.1,57.4,29.83,West,274,2.0,-999.0,91,0.00,,,0.00,11.97,,2013-08-05 02:41:00,
2013-08-04 19:51:00,59.8,57.3,29.82,SW,223,11.9,-999.0,92,0.00,,,0.00,8.97,,2013-08-05 02:51:00,
2013-08-04 19:56:00,59.7,57.3,29.83,WSW,239,9.5,-999.0,92,0.00,,,0.00,7.20,,2013-08-05 02:56:00,
2013-08-04 20:01:00,59.7,57.4,29.83,West,269,6.9,-999.0,92,0.00,,,0.00,4.82,,2013-08-05 03:01:00,
2013-08-04 20:11:00,59.7,57.7,29.84,SSW,197,4.2,-999.0,93,0.00,,,0.00,0.55,,2013-08-05 03:11:00,
2013-08-04 20:16:00,59.9,57.9,29.83,NNW,335,4.4,-999.0,93,0.00,,,0.00,0.49,,2013-08-05 03:16:00,
2013-08-04 20:26:00,59.9,58.0,29.84,SW,220,6.9,-999.0,94,0.00,,,0.00,1.95,,2013-08-05 03:26:00,
2013-08-04 20:31:00,59.6,57.9,29.84,WSW,250,6.8,-999.0,94,0.00,,,0.00,0.98,,2013-08-05 03:31:00,
2013-08-04 20:36:00,59.8,58.2,29.84,SSW,201,4.7,-999.0,94,0.00,,,0.00,0.00,,2013-08-05 03:36:00,
2013-08-04 20:41:00,59.9,58.3,29.85,WNW,296,4.7,-999.0,95,0.00,,,0.00,0.24,,2013-08-05 03:41:00,
2013-08-04 20:46:00,59.7,58.1,29.85,SW,228,1.0,-999.0,94,0.00,,,0.00,0.49,,2013-08-05 03:46:00,
2013-08-04 20:51:00,59.8,58.2,29.85,North,8,2.3,-999.0,95,0.00,,,0.00,0.98,,2013-08-05 03:51:00,
2013-08-04 20:56:00,59.7,58.1,29.85,WSW,250,7.4,-999.0,94,0.00,,,0.00,0.00,,2013-08-05 03:56:00,
2013-08-04 21:01:00,59.8,58.4,29.85,NW,321,1.5,-999.0,95,0.00,,,0.00,0.67,,2013-08-05 04:01:00,
2013-08-04 21:06:00,59.8,58.3,29.84,South,184,0.0,-999.0,95,0.00,,,0.00,0.00,,2013-08-05 04:06:00,
2013-08-04 21:11:00,59.7,58.3,29.85,WNW,289,5.8,-999.0,95,0.00,,,0.00,0.00,,2013-08-05 04:11:00,
2013-08-04 21:16:00,59.6,58.2,29.85,SW,222,0.0,-999.0,95,0.00,,,0.00,0.31,,2013-08-05 04:16:00,
2013-08-04 21:26:00,59.8,58.4,29.85,NNW,346,1.3,-999.0,95,0.00,,,0.00,0.00,,2013-08-05 04:26:00,
2013-08-04 21:36:00,59.9,58.7,29.86,SW,221,2.5,-999.0,96,0.00,,,0.00,0.73,,2013-08-05 04:36:00,
2013-08-04 21:41:00,59.9,58.7,29.86,SSW,203,1.0,-999.0,96,0.00,,,0.00,0.00,,2013-08-05 04:41:00,
2013-08-04 21:51:00,60.0,58.8,29.85,SW,230,0.0,-999.0,96,0.00,,,0.00,0.06,,2013-08-05 04:51:00,
2013-08-04 21:56:00,59.8,58.7,29.85,SSW,203,1.8,-999.0,96,0.00,,,0.00,0.00,,2013-08-05 04:56:00,
2013-08-04 22:06:00,59.9,58.9,29.86,SW,219,2.8,-999.0,96,0.00,,,0.00,0.00,,2013-08-05 05:06:00,
2013-08-04 22:11:00,60.0,59.1,29.87,South,181,2.8,-999.0,97,0.00,,,0.00,0.00,,2013-08-05 05:11:00,
2013-08-04 22:16:00,59.7,58.7,29.87,SSW,205,5.9,-999.0,97,0.00,,,0.00,0.49,,2013-08-05 05:16:00,
2013-08-04 22:21:00,59.9,59.2,29.86,WSW,241,0.0,-999.0,97,0.00,,,0.00,0.43,,2013-08-05 05:21:00,
2013-08-04 22:26:00,59.8,59.1,29.86,SSW,209,3.4,-999.0,97,0.00,,,0.00,0.00,,2013-08-05 05:26:00,
2013-08-04 22:31:00,59.7,58.9,29.87,SSW,204,4.4,-999.0,97,0.00,,,0.00,0.00,,2013-08-05 05:31:00,
2013-08-04 22:36:00,59.6,58.8,29.86,SW,221,2.8,-999.0,97,0.00,,,0.00,0.00,,2013-08-05 05:36:00,
2013-08-04 22:46:00,59.7,59.0,29.85,South,180,0.0,-999.0,98,0.00,,,0.00,0.00,,2013-08-05 05:46:00,
2013-08-04 22:51:00,59.6,58.8,29.87,SSW,194,4.5,-999.0,97,0.00,,,0.00,0.00,,2013-08-05 05:51:00,
2013-08-04 22:56:00,59.6,58.8,29.87,WSW,242,4.4,-999.0,97,0.00,,,0.00,0.55,,2013-08-05 05:56:00,
2013-08-04 23:06:00,59.3,58.7,29.86,South,190,4.5,-999.0,98,0.00,,,0.00,0.00,,2013-08-05 06:06:00,
2013-08-04 23:11:00,59.2,58.5,29.86,SW,226,5.9,-999.0,97,0.00,,,0.00,0.49,,2013-08-05 06:11:00,
2013-08-04 23:16:00,59.3,58.6,29.86,SW,218,8.0,-999.0,98,0.00,,,0.00,1.47,,2013-08-05 06:16:00,
2013-08-04 23:26:00,59.5,58.8,29.85,SE,132,2.5,-999.0,98,0.00,,,0.00,0.00,,2013-08-05 06:26:00,
2013-08-04 23:36:00,59.5,58.7,29.85,WSW,241,5.4,-999.0,97,0.00,,,0.00,0.24,,2013-08-05 06:36:00,
2013-08-04 23:46:00,59.4,58.6,29.86,SSW,212,5.4,-999.0,97,0.00,,,0.00,0.49,,2013-08-05 06:46:00,
2013-08-04 23:51:00,59.6,58.9,29.85,NW,312,2.2,-999.0,98,0.00,,,0.00,0.00,,2013-08-05 06:51:00,
2013-08-04 23:56:00,59.5,58.8,29.86,WSW,248,3.4,-999.0,98,0.00,,,0.00,0.06,,2013-08-05 06:56:00,